Flag for Canada Weather past 2 weeks in Wood Buffalo, Alberta, Canada

Now
76 °F

Mild.


Feels Like: 78 °F
Forecast: 49 / 76 °F
Wind: 12 mph from West

Location: Fort McMurray CS

Current Time: Sep 21, 2014 at 2:30:44 PM

Latest Report: Sep 21, 2014 at 1:00 PM


Visibility: N/A

Pressure: 29.83 "Hg

Humidity: 36%

Dew point: 47 °F

Location of Wood BuffaloLocation

Historic Weather in Wood Buffalo — Graph

°F

Wood Buffalo temperature yesterday

Maximum temperature yesterday: 69 °F (at 5:00 PM)
Minimum temperature yesterday: 47 °F (at 11:00 PM)
Average temperature yesterday: 57 °F

Past Weeks' High & Low Weather Summary

 TemperatureHumidityPressure
High76 °F (Sep 21, 1:00 PM)100% (Sep 13, 3:00 AM)30.66 "Hg (Sep 13, 3:00 AM)
Low24 °F (Sep 11, 7:00 AM)28% (Sep 11, 5:00 PM)29.42 "Hg (Sep 19, 5:00 PM)
Average47 °F72%29.97 "Hg
* Reported Sep 9 3:00 PM — Sep 21 1:00 PM, Wood Buffalo, Weather by CustomWeather, © 2014

Note: Actual official high and low records may vary slightly from our data, if they occured in-between our weather recording intervals... More about our weather records

Advertising

Wood Buffalo weather history for previous 24 hours

 ConditionsComfort  
Time TempWeatherWind HumidityBarometerVisibility
1:00 PM
Sep 21
76 °FMild.12 mph36%29.83 "HgN/A
12:00 PM71 °FMild.13 mph47%29.85 "HgN/A
11:00 AM68 °FMild.10 mph53%29.85 "HgN/A
10:00 AM63 °FMild.12 mph59%29.87 "HgN/A
9:00 AM53 °FCool.2 mph79%29.89 "HgN/A
8:00 AM50 °FCool.3 mph83%29.89 "HgN/A
7:00 AM47 °FCool.3 mph84%29.88 "HgN/A
6:00 AM49 °FCool.5 mph80%29.88 "HgN/A
5:00 AM45 °FQuite cool.3 mph88%29.89 "HgN/A
4:00 AM44 °FQuite cool.2 mph91%29.88 "HgN/A
3:00 AM44 °FQuite cool.No wind85%29.90 "HgN/A
2:00 AM45 °FQuite cool.5 mph83%29.91 "HgN/A
1:00 AM46 °FCool.No wind80%29.93 "HgN/A
12:00 AM48 °FCool.2 mph71%29.93 "HgN/A
11:00 PM
Sep 20
47 °FCool.5 mph69%29.95 "HgN/A
10:00 PM48 °FCool.6 mph69%29.95 "HgN/A
9:00 PM50 °FCool.8 mph65%29.95 "HgN/A
8:00 PM58 °FRefreshingly cool.5 mph48%29.94 "HgN/A
7:00 PM64 °FMild.8 mph34%29.94 "HgN/A
6:00 PM67 °FMild.13 mph29%29.93 "HgN/A
5:00 PM69 °FMild.17 mph29%29.92 "HgN/A
4:00 PM67 °FMild.15 mph32%29.91 "HgN/A
3:00 PM68 °FMild.15 mph32%29.91 "HgN/A
2:00 PM67 °FMild.17 mph35%29.90 "HgN/A
Weather by CustomWeather, © 2014

See weather overviewHow to use our weather pages